Location: Hertford
(51.8000°N, 0.0667°W)
Time: 17:27:31
(UTC+00:00)

CREW DRAGON DEMO-1 DEB - Pass Details

Date: 18 September 2020
Orbit: 361 x 362 km, 51.6° (Epoch: 31 October)

Event Time Altitude Azimuth Distance (km) Brightness Sun altitude
Rises 20:16:56 0° 278° (W) 2,198 7.9 -19.9°
Reaches altitude 10° 20:18:58 10° 277° (W) 1,352 6.6 -20.2°
Enters shadow 20:21:21 51° 260° (W) 469 3.5 -20.5°
